Location: Wanzleben
(52.0609°N, 11.4408°E)
Time: 02:47:03
(UTC+00:00)

COSMOS 2406 - Pass Details

Date: 18 January 2021
Orbit: 841 x 865 km, 71.0° (Epoch: 05 March)

Event Time Altitude Azimuth Distance (km) Brightness Sun altitude
Rises 17:46:19 0° 329° (NNW) 3,459 6.7 -19.2°
Reaches altitude 10° 17:49:05 10° 340° (NNW) 2,520 5.8 -19.6°
Maximum altitude 17:54:13 31° 42° (NE) 1,476 4.0 -20.4°
Enters shadow 17:54:22 31° 45° (NE) 1,477 4.0 -20.4°
